[[{"header":{"parameterUnit":"m.s-1","parameterCategory":1,"la1":30.2991,"la2":30.254,"lo1":-89.0895,"lo2":-89.0444,"dy":0.0017,"dx":0.0017,"nx":28,"ny":28,"refTime":"2025-03-05T03:00:00:Z","depth":0,"parameterNumber":2,"parameterNumberName":"U-component_of_WINDS"},"data":[0,0,0,0,0,0,0,0,0,0,0,0,0,0,0,0,0,0,0,0,0,0,0,0,0,0,0,0,0,0,0,0,0,0,0,0,0,0,0,0,0,0,0,0,0,0,0,0,0,0,0,0,0,0,0,0,0,0,-2.617,-2.6174,0,-2.651,-2.6514,-2.6518,-2.666,-2.6659,-2.6658,-2.6658,-2.701,-2.7019,-2.7029,0,0,0,0,0,0,0,0,0,0,0,0,0,-2.5648,-2.5657,-2.617,-2.6174,-2.6178,-2.6509,-2.6514,-2.6519,-2.666,-2.6659,-2.6658,-2.6657,-2.7006,-2.7018,-2.703,0,0,0,0,0,0,0,0,0,0,0,0,0,-2.592,-2.5659,-2.6169,-2.6289,-2.6303,-2.6508,-2.6514,-2.652,-2.666,-2.6659,-2.6658,-2.6657,-2.7002,-2.7017,-2.7032,-2.7145,0,0,-2.7078,-2.7084,0,0,0,0,0,0,0,0,-2.5904,-2.5939,-2.6267,-2.6281,-2.6297,-2.6541,-2.6459,-2.673,-2.666,-2.6524,-2.6658,-2.6656,-2.6855,-2.6882,-2.6948,-2.7162,-2.7177,-2.7079,-2.7088,-2.7095,-2.7099,0,0,0,0,0,0,0,-2.5885,-2.5925,-2.6305,-2.6271,-2.629,-2.6327,-2.6364,-2.6511,-2.6691,-2.6536,-2.6547,-2.6585,-2.6863,-2.6933,-2.6957,-2.7182,-2.7079,-2.7092,-2.7101,-2.7107,-2.7506,-2.7508,0,0,0,0,0,0,-2.5846,-2.5908,-2.6294,-2.6315,-2.6094,-2.6337,-2.6379,-2.6464,-2.669,-2.6724,-2.6586,-2.6591,-2.6908,-2.694,-2.697,-2.7118,-2.7094,-2.7109,-2.7117,-2.7504,-2.7506,-2.7508,0,0,0,0,0,0,-2.5834,-2.5879,-2.628,-2.6115,-2.6169,-2.6347,-2.6441,-2.6471,-2.6542,-2.6728,-2.6761,-2.6624,-2.6909,-2.6949,-2.71,-2.7132,-2.7115,-2.7129,-2.7503,-2.7505,-2.7507,-2.7414,0,0,0,0,0,0,-2.5818,-2.5874,-2.5918,-2.6115,-2.6177,-2.6403,-2.6443,-2.6479,-2.6567,-2.6576,-2.6773,-2.6804,-2.6911,-2.7077,-2.7115,-2.7153,-2.7141,-2.7501,-2.7504,-2.7507,-2.7415,-2.7413,-2.7411,0,0,0,0,0,-2.5799,-2.5879,-2.5919,-2.5965,-2.6235,-2.6404,-2.644,-2.656,-2.6568,-2.6615,-2.6734,-2.6798,-2.7122,-2.7091,-2.7136,-2.7178,-2.7499,-2.7503,-2.7506,-2.7416,-2.7413,-2.7411,0,0,0,0,0,0,-2.5683,-2.5907,-2.5954,-2.6099,-2.6231,-2.6428,-2.649,-2.6554,-2.6688,-2.6691,-2.6836,-2.6879,-2.7018,-2.7114,-2.7075,-2.73,-2.7316,-2.7328,-2.7232,-2.7231,-2.7229,-2.7204,-2.7153,0,0,0,0,0,-2.5674,-2.5791,-2.5981,-2.6091,-2.6155,-2.631,-2.6389,-2.647,-2.6613,-2.667,-2.6801,-2.6939,-2.7072,-2.7157,-2.729,-2.7429,-2.7475,-2.748,-2.7478,-2.7476,-2.7485,-2.7566,-2.7571,-2.752,-2.752,-2.752,0,0,-2.5657,-2.5794,-2.5859,-2.6071,-2.6183,-2.6303,-2.6357,-2.6481,-2.6572,-2.669,-2.684,-2.6941,-2.7104,-2.725,-2.7321,-2.7334,-2.7509,-2.748,-2.7477,-2.7488,-2.757,-2.7575,-2.7579,-2.7522,-2.7522,-2.7521,0,0,-2.5687,-2.5802,-2.5906,-2.6017,-2.6185,-2.6288,-2.6312,-2.65,-2.6571,-2.6723,-2.6814,-2.6925,-2.7151,-2.7264,-2.7351,-2.7423,-2.7487,-2.7462,-2.7452,-2.753,-2.7534,-2.7538,-2.7564,-2.7572,-2.7471,-2.7471,-2.7471,0,-2.5645,-2.5828,-2.5952,-2.6071,-2.6162,-2.6272,-2.638,-2.6482,-2.6685,-2.6746,-2.6757,-2.7043,-2.7161,-2.7335,-2.7352,-2.7419,-2.7453,-2.7441,-2.7523,-2.7528,-2.7534,-2.7561,-2.757,-2.7467,-2.7467,-2.7468,-2.7468,0,-2.5768,-2.5893,-2.5957,-2.6149,-2.6247,-2.6359,-2.6502,-2.6587,-2.6658,-2.676,-2.6915,-2.706,-2.7224,-2.7272,-2.7344,-2.7456,-2.7459,-2.7494,-2.7514,-2.7533,-2.756,-2.7571,-2.7461,-2.7462,-2.7464,-2.7465,0,0,-2.5736,-2.5993,-2.6015,-2.6103,-2.6296,-2.6397,-2.6514,-2.6673,-2.6743,-2.688,-2.6983,-2.7171,-2.7205,-2.7304,-2.739,-2.7457,-2.7505,-2.7486,-2.7492,-2.7484,-2.7638,-2.761,-2.762,-2.7548,-2.7551,-2.7553,-2.7625,0,-2.5792,-2.6006,-2.6121,-2.6287,-2.6405,-2.6511,-2.6614,-2.6744,-2.6842,-2.6957,-2.7067,-2.7198,-2.7233,-2.7293,-2.7365,-2.7484,-2.7538,-2.748,-2.7647,-2.7651,-2.7603,-2.7634,-2.7606,-2.7666,-2.7636,-2.7638,-2.7639,0,-2.5888,-2.602,-2.6197,-2.6376,-2.643,-2.652,-2.6675,-2.6783,-2.6933,-2.7,-2.7109,-2.7194,-2.7323,-2.7332,-2.7513,-2.7471,-2.7546,-2.7614,-2.762,-2.7641,-2.7646,-2.7656,-2.7689,-2.7697,-2.7657,-2.7656,-2.7655,0,-2.5846,-2.607,-2.6204,-2.6277,-2.6489,-2.655,-2.6641,-2.679,-2.6878,-2.7014,-2.7073,-2.7222,-2.7304,-2.7419,-2.7542,-2.7537,-2.7711,-2.773,-2.7771,-2.7768,-2.7804,-2.78,-2.7849,-2.785,-2.785,-2.785,-2.785,0,-2.5898,-2.6002,-2.6189,-2.6271,-2.6392,-2.6523,-2.6639,-2.6739,-2.687,-2.6976,-2.7077,-2.7174,-2.7331,-2.7447,-2.7545,-2.768,-2.7716,-2.7775,-2.78,-2.7766,-2.7759,-2.7818,-2.7817,-2.7853,-2.7852,-2.7851,-2.7851,0,-2.5873,-2.6002,-2.6156,-2.6343,-2.6393,-2.6473,-2.6635,-2.672,-2.6822,-2.6954,-2.6993,-2.7155,-2.7298,-2.7431,-2.7622,-2.7688,-2.7824,-2.7856,-2.7773,-2.7786,-2.782,-2.7815,-2.791,-2.7929,-2.7915,-2.7915,-2.7915,0,-2.5898,-2.598,-2.6176,-2.6253,-2.6342,-2.6464,-2.6554,-2.6687,-2.6776,-2.6953,-2.7017,-2.7166,-2.7293,-2.7516,-2.7652,-2.7799,-2.7835,-2.7858,-2.7858,-2.7822,-2.7837,-2.783,-2.784,-2.7856,-2.7855,-2.7855,-2.7855,0,-2.5929,-2.5988,-2.6113,-2.6259,-2.6363,-2.6486,-2.6612,-2.6669,-2.6826,-2.6922,-2.7068,-2.7165,-2.7359,-2.7507,-2.7669,-2.7765,-2.7837,-2.7853,-2.7871,-2.7838,-2.7786,-2.7815,-2.7767,-2.7851,-2.7851,-2.7851,-2.7852,-2.7852,-2.5931,-2.6009,-2.6158,-2.6294,-2.6402,-2.6517,-2.6606,-2.6718,-2.6842,-2.7009,-2.708,-2.7227,-2.7376,-2.76,-2.7696,-2.7814,-2.783,-2.7855,-2.7862,-2.7867,-2.786,-2.7766,-2.7844,-2.7845,-2.7845,-2.7845,-2.7845,0,-2.5968,-2.6068,-2.6191,-2.6363,-2.647,-2.6525,-2.6667,-2.6753,-2.6881,-2.7012,-2.7134,-2.7302,-2.7446,-2.7592,-2.7743,-2.781,-2.7847,-2.7846,-2.7843,-2.7864,-2.7837,-2.7806,-2.7814,-2.7814,-2.7814,-2.7814,-2.7814,-2.7814,-2.5999,-2.6134,-2.621,-2.64,-2.6501,-2.6645,-2.6721,-2.6828,-2.6934,-2.7116,-2.7235,-2.7328,-2.7466,-2.7629,-2.7763,-2.7803,-2.7854,-2.7844,-2.7892,-2.7864,-2.7866,-2.7867,-2.784,-2.7854,-2.7854,-2.7911,-2.7911,-2.7911]},{"header":{"parameterUnit":"m.s-1","parameterCategory":1,"la1":30.2991,"la2":30.254,"lo1":-89.0895,"lo2":-89.0444,"dy":0.0017,"dx":0.0017,"nx":28,"ny":28,"refTime":"2025-03-05T03:00:00:Z","depth":0,"parameterNumber":3,"parameterNumberName":"V-component_of_WINDS"},"data":[0,0,0,0,0,0,0,0,0,0,0,0,0,0,0,0,0,0,0,0,0,0,0,0,0,0,0,0,0,0,0,0,0,0,0,0,0,0,0,0,0,0,0,0,0,0,0,0,0,0,0,0,0,0,0,0,0,0,11.6939,11.694,0,11.7071,11.7072,11.7074,11.7022,11.7019,11.7016,11.7013,11.7138,11.7144,11.715,0,0,0,0,0,0,0,0,0,0,0,0,0,11.6635,11.6641,11.6939,11.694,11.6942,11.7071,11.7072,11.7074,11.7022,11.7019,11.7015,11.7011,11.7136,11.7143,11.7151,0,0,0,0,0,0,0,0,0,0,0,0,0,11.6767,11.6643,11.6938,11.6932,11.6933,11.707,11.7072,11.7075,11.7023,11.7019,11.7014,11.701,11.7134,11.7143,11.7152,11.73,0,0,11.718,11.7184,0,0,0,0,0,0,0,0,11.6759,11.6778,11.6931,11.6933,11.6934,11.7025,11.7011,11.715,11.7024,11.6988,11.7013,11.7007,11.7104,11.7115,11.7149,11.7306,11.7311,11.7181,11.7186,11.719,11.7193,0,0,0,0,0,0,0,11.675,11.6772,11.699,11.6933,11.6935,11.692,11.6934,11.7037,11.707,11.6991,11.6988,11.7005,11.7103,11.7141,11.7152,11.7313,11.7181,11.7189,11.7194,11.7198,11.7602,11.7607,0,0,0,0,0,0,11.6742,11.6765,11.6986,11.6994,11.6834,11.6929,11.6945,11.7,11.7069,11.7075,11.7008,11.7002,11.7127,11.7141,11.7156,11.7338,11.719,11.7199,11.7204,11.7597,11.7603,11.7609,0,0,0,0,0,0,11.6735,11.6762,11.6981,11.6879,11.6906,11.694,11.7002,11.7005,11.7043,11.7082,11.7086,11.7041,11.7124,11.7143,11.7267,11.7341,11.7203,11.7212,11.7591,11.7599,11.7606,11.77,0,0,0,0,0,0,11.6727,11.676,11.6818,11.6881,11.6911,11.7091,11.7007,11.7011,11.706,11.7053,11.7114,11.7119,11.7122,11.7253,11.7276,11.7351,11.7219,11.7584,11.7595,11.7604,11.769,11.771,11.7726,0,0,0,0,0,11.6716,11.6836,11.6821,11.6848,11.6985,11.7096,11.7113,11.7117,11.7066,11.7124,11.715,11.7117,11.7329,11.7266,11.7291,11.7371,11.758,11.7592,11.7603,11.7682,11.7706,11.7726,0,0,0,0,0,0,11.6776,11.6844,11.6828,11.6972,11.703,11.7087,11.716,11.7141,11.721,11.72,11.7199,11.7213,11.7341,11.7367,11.7296,11.752,11.7447,11.7464,11.7498,11.7521,11.7539,11.753,11.7227,0,0,0,0,0,11.6808,11.6895,11.6947,11.7069,11.7099,11.7125,11.7173,11.7172,11.7229,11.7252,11.7286,11.7341,11.742,11.7471,11.7546,11.7694,11.7707,11.7761,11.7779,11.7794,11.7809,11.7892,11.7917,11.7647,11.7647,11.7647,0,0,11.687,11.6918,11.6972,11.7083,11.7127,11.7216,11.7145,11.7241,11.7306,11.7265,11.7386,11.7413,11.7473,11.7611,11.7673,11.7637,11.7887,11.7809,11.782,11.7827,11.7906,11.7932,11.7954,11.7655,11.7654,11.7653,0,0,11.7031,11.7076,11.7184,11.7231,11.7301,11.7318,11.7344,11.7406,11.7424,11.7546,11.7518,11.7594,11.773,11.7776,11.7817,11.8001,11.7974,11.8025,11.8119,11.82,11.8222,11.8241,11.8308,11.8332,11.8039,11.804,11.804,0,11.7099,11.7235,11.7241,11.7342,11.7392,11.7364,11.7473,11.7517,11.7606,11.764,11.76,11.7773,11.7811,11.7961,11.8006,11.804,11.8069,11.8017,11.8219,11.8238,11.8255,11.832,11.8345,11.8045,11.8045,11.8044,11.8044,0,11.7317,11.7412,11.749,11.7583,11.7642,11.7745,11.7766,11.7824,11.7819,11.784,11.7966,11.8012,11.8097,11.8132,11.8125,11.8282,11.8258,11.8218,11.8145,11.8287,11.8347,11.8372,11.8054,11.8052,11.805,11.8049,0,0,11.7516,11.7615,11.7644,11.7688,11.7764,11.7836,11.7939,11.8028,11.8079,11.8141,11.8228,11.8346,11.8312,11.8358,11.8357,11.8428,11.8574,11.838,11.8381,11.8416,11.8751,11.8782,11.881,11.8557,11.8561,11.8565,11.8747,0,11.7685,11.787,11.7881,11.8048,11.8137,11.8114,11.8204,11.826,11.8283,11.836,11.8384,11.8469,11.8416,11.8445,11.8514,11.8541,11.8641,11.8528,11.8636,11.864,11.8623,11.8841,11.8873,11.9042,11.877,11.8774,11.8777,0,11.7905,11.7981,11.8159,11.8228,11.8265,11.8347,11.843,11.8504,11.8567,11.8579,11.8635,11.8624,11.8729,11.8653,11.8798,11.8721,11.8766,11.8786,11.8793,11.8803,11.8718,11.8859,11.9095,11.9121,11.8814,11.8811,11.8808,0,11.8036,11.8182,11.8308,11.8346,11.8428,11.8487,11.8523,11.8582,11.8636,11.8708,11.8743,11.8824,11.8869,11.8932,11.8944,11.8887,11.909,11.9013,11.9102,11.9102,11.9145,11.9143,11.9394,11.9173,11.9173,11.9172,11.9172,0,11.8223,11.8333,11.8369,11.8447,11.857,11.8581,11.8701,11.8733,11.8787,11.887,11.8853,11.893,11.8941,11.902,11.9029,11.9149,11.9169,11.9181,11.9182,11.9183,11.9182,11.9213,11.9202,11.9179,11.9177,11.9176,11.9175,0,11.8389,11.8417,11.8555,11.8624,11.8644,11.8732,11.879,11.8864,11.8887,11.8992,11.9017,11.9053,11.9146,11.9165,11.9273,11.928,11.9423,11.9412,11.9403,11.9402,11.9491,11.9483,11.9771,11.9811,11.9563,11.9565,11.9567,0,11.8507,11.8593,11.8673,11.873,11.8771,11.8861,11.8918,11.8932,11.8991,11.9073,11.9137,11.923,11.9305,11.9455,11.9488,11.9572,11.9564,11.9659,11.9575,11.9575,11.9567,11.9563,11.9572,11.9675,11.9677,11.968,11.9681,0,11.8715,11.8726,11.881,11.8901,11.8971,11.9041,11.9108,11.9155,11.9178,11.9245,11.9343,11.9402,11.9517,11.9609,11.9694,11.9728,11.971,11.9708,11.9733,11.9735,11.9728,11.9736,11.9448,11.9701,11.9699,11.9697,11.9696,11.9696,11.8861,11.8938,11.9009,11.9104,11.9157,11.9222,11.9297,11.9332,11.9415,11.9513,11.9515,11.9623,11.9686,11.9799,11.984,11.9923,11.9892,11.9928,11.9938,11.9947,11.9956,11.9715,11.9938,11.9937,11.9937,11.9936,11.9936,0,11.907,11.9116,11.9204,11.9302,11.9377,11.9357,11.9431,11.9495,11.9592,11.9654,11.9731,11.9845,11.9935,11.9978,12.0068,12.0126,12.012,12.0149,12.0145,12.0154,11.9977,11.9948,12.0153,12.0153,12.0153,12.0153,12.0153,12.0153,11.9187,11.9317,11.9338,11.9494,11.9537,11.9647,11.9691,11.975,11.9801,11.9931,12.0009,12.0038,12.0093,12.0187,12.0269,12.0279,12.0313,12.0348,12.0354,12.0188,12.0166,12.0145,12.0117,12.0355,12.0355,12.0524,12.0525,12.0526]}]]